User: anonymous   Login
Location: *
(47.6569°N, 7.4256°E)
Time: 11:15:52
(UTC+00:00)
Language:

Cosmos 1954 Rocket - Orbit

View from above orbital plane
View from above orbital plane
View from above satellite
View from above satellite

Ground track
Ground track

The orbit data is extracted from the following two-line orbital elements,

1 19257U 88053B   20057.89960635 -.00000054  00000-0 -90531-5 0  9992
2 19257  74.0474 206.0971 0021059 215.2039 315.8670 14.37457387660254
Epoch (UTC): 26 February 2020 21:35:25
Eccentricity: 0.0021059
inclination: 74.0474°
perigee height: 752 km
apogee height: 782 km
right ascension of ascending node: 206.0971°
argument of perigee: 215.2039°
revolutions per day: 14.37457387
mean anomaly at epoch: 315.8670°
orbit number at epoch: 66025

The dashed part of the orbit path shows where the satellite is in the earth's shadow,  

DLR